Home > Weather > Pontiac > Past weeks

Flag for USA Weather for the Past 2 Weeks in Pontiac, Michigan, USA

Now
39 °F

Fog.


Feels Like: 39 °F
Forecast: 39 / 64 °F
Wind: No wind

Location: Oakland County International Airport

Current Time: May 3, 2016 at 5:23:52 AM

Latest Report: May 3, 2016 at 3:53 AM


Visibility: 6 mi

Pressure: 29.95 "Hg

Humidity: 93%

Dew Point: 37 °F

Location of PontiacLocation

Historic Weather in Pontiac — Graph

°F

Pontiac Temperature Yesterday

Maximum temperature yesterday: 54 °F (at 4:53 PM)
Minimum temperature yesterday: 44 °F (at 3:01 AM)
Average temperature yesterday: 48 °F

High & Low Weather Summary for the Past Weeks

 TemperatureHumidityPressure
High80 °F (Apr 18, 3:53 PM)100% (Apr 22, 2:53 AM)30.34 "Hg (Apr 22, 2:53 AM)
Low33 °F (Apr 24, 5:53 AM)21% (Apr 20, 5:53 PM)29.63 "Hg (Apr 26, 3:53 AM)
Average50 °F62%30.03 "Hg
* Reported Apr 18 3:53 AM — May 3 3:53 AM, Pontiac, Weather by CustomWeather, © 2016

Note: Actual official high and low records may vary slightly from our data, if they occured in-between our weather recording intervals... More about our weather records

Advertising

Pontiac Weather History for the Previous 24 Hours

Scroll right to see more
 ConditionsComfort  
Time TempWeatherWind HumidityBarometerVisibility
3:53 AM
Tue, May 3
39 °FFog.No wind93%29.95 "Hg6 mi
2:53 AM38 °FFog.No wind93%29.96 "Hg2 mi
1:53 AM42 °FClear.No wind85%29.97 "Hg8 mi
12:53 AM43 °FClear.No wind89%29.97 "Hg10 mi
11:53 PM
Mon, May 2
46 °FPassing clouds.5 mph79%29.97 "Hg10 mi
10:53 PM48 °FPassing clouds.5 mph74%29.97 "Hg10 mi
9:53 PM50 °FPassing clouds.5 mph66%29.98 "Hg10 mi
8:53 PM52 °FPartly sunny.3 mph69%29.99 "Hg10 mi
7:53 PM53 °FPartly sunny.6 mph66%29.98 "Hg10 mi
6:53 PM54 °FOvercast.5 mph62%29.98 "Hg10 mi
5:53 PM54 °FMostly cloudy.3 mph62%30.00 "Hg10 mi
4:53 PM54 °FMostly cloudy.3 mph62%30.00 "Hg10 mi
3:53 PM53 °FMostly cloudy.5 mph66%30.02 "Hg10 mi
2:53 PM52 °FMostly cloudy.5 mph69%30.03 "Hg10 mi
1:53 PM50 °FMostly cloudy.9 mph77%30.01 "Hg10 mi
12:53 PM49 °FMostly cloudy.10 mph80%30.02 "Hg10 mi
11:53 AM47 °FCloudy.10 mph86%30.03 "Hg10 mi
10:53 AM45 °FMostly cloudy.7 mph93%30.03 "Hg10 mi
9:53 AM45 °FDrizzle. Fog.7 mph93%30.03 "Hg5 mi
8:53 AM44 °FFog.8 mph96%30.02 "Hg5 mi
7:53 AM44 °FLight rain. Fog.6 mph93%30.01 "Hg2 mi
6:53 AM44 °FLight rain. Low clouds.7 mph93%29.99 "Hg7 mi
5:53 AM44 °FLight rain. Fog.8 mph96%29.97 "Hg4 mi
Weather by CustomWeather, © 2016

See weather overviewHow to use our weather pages